Regional Weather Roundup
Issued by NWS

Home | Current Version | Previous Version | Graphics & Text | Print | Product List | Glossary On
Versions: 1 2 3 4 5 6 7 8 9 10 11 12 13 14 15 16 17 18 19 20 21 22 23 24 25 26 27
000
ASUS45 KSLC 251010
RWRUT

UTAH REGIONAL WEATHER ROUNDUP
NATIONAL WEATHER SERVICE SALT LAKE CITY UT
400 AM MDT WED MAY 25 2016

UTZ001>011-023>025-251100-

NORTHERN UTAH

CITY           SKY/WX    TMP DP  RH WIND       PRES   REMARKS
BRIGHAM CITY     N/A     46  41  85 CALM      29.97R
HILL AFB       CLOUDY    47  39  73 E9        29.97S
LOGAN          MOCLDY    41  40  96 N6        29.97R
OGDEN          CLOUDY    48  40  73 S9        29.96R
PROVO AIRPORT  PTCLDY    46  36  66 E3        29.99S
SALT LAKE CITY MOCLDY    53  40  61 SE6       29.96S
VERNAL         PTCLDY    44  31  60 W6        29.98S
WENDOVER       PTCLDY    52  36  54 W9        29.97S
HEBER CITY     PTCLDY    36  34  93 CALM      30.01R
WEST JORDAN    CLOUDY    48  39  71 S5        29.98R

$$

UTZ012>022-026-027-251100-

SOUTHERN/CENTRAL UTAH

CITY           SKY/WX    TMP DP  RH WIND       PRES   REMARKS
BLANDING       PTCLDY    46  19  34 NW5       30.12S
BRYCE CANYON   CLEAR     29  22  75 W3        30.11S
CEDAR CITY     PTCLDY    45  25  45 SE6       30.02S
DELTA          CLEAR     41  34  75 S8        29.98S
HANKSVILLE     CLEAR     45  25  45 E3        30.01S
MILFORD        MOCLDY    43  28  55 S5        30.00R
MOAB/CYNLANDS  MOCLDY    54  29  38 VRB3      29.97R
PRICE          CLEAR     40  26  57 N3        30.01R
ST GEORGE      MOSUNNY   57  25  28 SE10      29.96S

$$

REGIONAL REPORTS     COLORADO/ARIZONA

CITY           SKY/WX    TMP DP  RH WIND       PRES   REMARKS
CRAIG, CO      CLOUDY    42  37  82 S10       30.05S
GRAND JUNCTION PTCLDY    49  29  46 E3        29.98R
RIFLE          PTCLDY    53  31  42 S3        30.00R
MONTROSE       PTCLDY    54  18  24 W7        30.05R
CORTEZ         CLOUDY    54  21  27 S13       30.07R
PAGE, AZ       PTCLDY    57  22  25 CALM      29.99F
GRAND CANYON   CLEAR     31  16  54 NE5       30.10S WCI  26
KINGMAN        CLEAR     48  21  34 S5        29.97S
FLAGSTAFF      CLEAR     37  18  46 W5        30.11F WCI  33

$$

REGIONAL REPORTS    NEVADA/IDAHO/WYOMING

CITY           SKY/WX    TMP DP  RH WIND       PRES   REMARKS
LAS VEGAS, NV  PTCLDY    64  36  35 S8        29.87S
ELY            CLEAR     32  30  92 S9        30.04S WCI  24
ELKO           CLOUDY    44  40  85 W3        30.01S
POCATELLO, ID  MOCLDY    47  45  93 CALM      29.96R
BURLEY         PTCLDY    47  40  76 SW6       29.92S
EVANSTON, WY   CLOUDY    37  33  85 SW5       30.03R WCI  33
ROCK SPRINGS   CLOUDY    39  33  79 S3        30.02R
KEMMERER         N/A     34  32  93 CALM      30.03S

$$




USA.gov is the U.S. government's official web portal to all federal, state and local government web resources and services.